912  
ASUS43 KOAX 280610  
RWRNE  
 
WEATHER ROUNDUP FOR NEBRASKA  
NATIONAL WEATHER SERVICE OMAHA NE  
1200 AM CST SUN FEB 28 2021  
 
NOTES: SATELLITE DATA IS BEING USED TO AUGMENT CLOUD COVER ABOVE  
12000 FEET.  
"FAIR" INDICATES FEW OR NO CLOUDS BELOW 12,000 FEET WITH NO  
SIGNIFICANT WEATHER AND/OR S TO VISIBILITY
.  
 
 
NEZ001>004-019>022-054>056-280700-  
NEBRASKA PANHANDLE  
 
CITY SKY/WX TMP DP RH WIND PRES REMARKS
 
SCOTTSBLUFF LGT SNOW 29 21 72 NW20G31 29.89R WCI 16  
6HR MIN TEMP: 28; 6HR MAX TEMP: 39; 6HR PCP: TRACE;  
 
ALLIANCE MOCLDY 25 24 96 NW6 29.86S WCI 18  
6HR MIN TEMP: 18; 6HR MAX TEMP: 38;  
 
CHADRON LGT SNOW 26 21 81 N13 29.94R WCI 15  
6HR MIN TEMP: 26; 6HR MAX TEMP: 29; 6HR PCP: TRACE;  
 
GORDON LGT SNOW 25 23 93 NW16 29.88R WCI 12  
6HR MIN TEMP: 25; 6HR MAX TEMP: 32;  
 
KIMBALL CLEAR 25 14 62 NW20 29.87S WCI 11  
SIDNEY PTCLDY 27 14 58 W14 29.88R WCI 16  
6HR MIN TEMP: 25; 6HR MAX TEMP: 37;  
 

 
 
NEZ057>060-069>072-079>082-280700-  
SOUTHWEST NEBRASKA  
 
CITY SKY/WX TMP DP RH WIND PRES REMARKS
 
NORTH PLATTE CLEAR 30 26 85 W7 29.86R WCI 23  
6HR MIN TEMP: 29; 6HR MAX TEMP: 49;  
 
IMPERIAL PTCLDY 29 17 61 W8 29.89S WCI 21  
6HR MIN TEMP: 29; 6HR MAX TEMP: 42;  
 
LEXINGTON CLEAR 31 28 88 W9 29.86S WCI 23  
MCCOOK CLEAR 30 24 78 W10 29.89R WCI 21  
6HR MIN TEMP: 30; 6HR MAX TEMP: 51;  
 
OGALLALA PTCLDY 24 20 84 CALM 29.88S  

 
 
NEZ005>010-023>029-035>040-094-280700-  
NORTH CENTRAL NEBRASKA  
 
CITY SKY/WX TMP DP RH WIND PRES REMARKS
 
VALENTINE CLOUDY 34 30 85 NE6 29.85F WCI 29  
6HR MIN TEMP: 33; 6HR MAX TEMP: 42;  
 
AINSWORTH CLOUDY 31 30 95 N8 29.84S WCI 24  
BROKEN BOW CLOUDY 33 30 88 NW7 29.84R WCI 27  
6HR MIN TEMP: 31; 6HR MAX TEMP: 41;  
 
O'NEILL CLOUDY 33 32 98 N9G16 29.81F FOG WCI 25  
ORD CLOUDY 34 30 85 NW12 29.81R WCI 25  
6HR MIN TEMP: 31; 6HR MAX TEMP: 41;  
 
THEDFORD PTCLDY 28 26 89 NW5 29.85R WCI 23  

 
 
NEZ041-046>049-061>064-073>077-083>087-280700-  
SOUTH CENTRAL NEBRASKA  
 
CITY SKY/WX TMP DP RH WIND PRES REMARKS
 
GRAND ISLAND CLEAR 34 30 85 NW7 29.79F WCI 28  
6HR MIN TEMP: 32; 6HR MAX TEMP: 42;  
 
AURORA CLEAR 36 34 90 NW12 29.79R WCI 28  
HASTINGS PTCLDY 35 32 88 NW8 29.80S WCI 29  
6HR MIN TEMP: 35; 6HR MAX TEMP: 42;  
 
HEBRON PTCLDY 41 36 81 NW9G17 29.78R  
HOLDREGE CLEAR 34 29 83 NW12 29.84S WCI 25  
KEARNEY CLEAR 32 31 96 NW16 29.83R WCI 21  
YORK N/A N/A N/A N/A MISG N/A  

 
 
NEZ011>018-030>034-042>045-280700-  
NORTHEAST NEBRASKA  
 
CITY SKY/WX TMP DP RH WIND PRES REMARKS
 
NORFOLK CLEAR 33 28 81 NW9 29.74R WCI 25  
6HR MIN TEMP: 33; 6HR MAX TEMP: 46;  
 
ALBION CLEAR 31 29 92 NW7 29.78R WCI 24  
BLAIR PTCLDY 40 37 89 SE7 29.69S  
COLUMBUS CLEAR 34 32 92 W8 29.76R WCI 27  
FREMONT PTCLDY 39 35 87 W12 29.73R WCI 32  
TEKAMAH PTCLDY 38 33 82 SW8 29.71R WCI 32  
6HR MIN TEMP: 37; 6HR MAX TEMP: 46;  
 
WAYNE PTCLDY 33 31 91 NW10 29.73S WCI 25  

 
 
NEZ050>053-065>068-078-088>093-280700-  
SOUTHEAST NEBRASKA  
 
CITY SKY/WX TMP DP RH WIND PRES REMARKS
 
LINCOLN CLEAR 43 37 79 NW13 29.74R  
6HR MIN TEMP: 42; 6HR MAX TEMP: 55; 6HR PCP: 0.06;  
 
OMAHA EPPLEY PTCLDY 40 36 86 CALM 29.70F  
6HR MIN TEMP: 39; 6HR MAX TEMP: 50; 6HR PCP: TRACE;  
 
BEATRICE CLOUDY 46 42 85 NW15 29.75R  
FALLS CITY CLOUDY 49 39 68 SE7 29.70S  
6HR MIN TEMP: 48; 6HR MAX TEMP: 57;  
 
NEBRASKA CITY CLOUDY 49 35 58 S7 29.69S  
PLATTSMOUTH CLOUDY 43 38 82 CALM 29.70F  

 
 
NEZ044-045-051>053-067-280700-  
OMAHA AREA  
 
CITY SKY/WX TMP DP RH WIND PRES REMARKS
 
OMAHA EPPLEY PTCLDY 40 36 86 CALM 29.70F  
6HR MIN TEMP: 39; 6HR MAX TEMP: 50; 6HR PCP: TRACE;  
 
BLAIR PTCLDY 40 37 89 SE7 29.69S  
FREMONT PTCLDY 39 35 87 W12 29.73R WCI 32  
MILLARD CLOUDY 43 39 86 CALM 29.69F  
OFFUTT AFB CLOUDY 42 37 82 SE3 29.69F  
PLATTSMOUTH CLOUDY 43 38 82 CALM 29.70F  
WAHOO CLEAR 37 36 96 NW8 29.72R WCI 31  

 
 
 
CLICK HERE TO GO TO PREVIOUS BULLETINS.

The Nexlab NE Page Main Text Page